Location: Newark
(15.4608°S, 41.1635°W)
Time: 22:23:37
(UTC+00:00)

Vanguard 1 - All Passes

Search period start: 30 July 2021 00:00
Search period end: 09 August 2021 00:00
Orbit: 651 x 3831 km, 34.2° (Epoch: 29 July)

Date Brightness Start Highest point End Pass type
(mag) Time Alt. Az. Time Alt. Az. Time Alt. Az.
30 Jul - 02:24:09 10° W 02:45:14 43° SSW 02:59:18 10° SE visible
30 Jul - 04:58:05 10° WSW 05:13:17 37° S 05:22:07 10° ESE visible
30 Jul - 07:26:14 10° SW 07:37:29 72° SSE 07:43:34 10° ENE visible
30 Jul - 09:53:10 10° W 09:57:14 17° NW 10:00:30 10° N daylight
30 Jul - 19:31:20 10° N 19:44:21 26° NE 20:01:03 10° E daylight
30 Jul - 21:49:43 10° NW 22:09:44 71° NE 22:32:44 10° ESE visible
31 Jul - 00:14:56 10° WNW 00:38:04 63° SSW 00:57:34 10° SE visible
31 Jul - 02:47:30 10° WSW 03:07:41 40° S 03:20:50 10° ESE visible
31 Jul - 05:20:22 10° SW 05:35:21 41° SSE 05:43:46 10° E visible
31 Jul - 07:47:48 10° WSW 07:58:33 81° NW 08:04:25 10° NE visible
31 Jul - 19:50:46 10° NNW 20:05:28 35° NE 20:25:01 10° ESE daylight
31 Jul - 22:10:40 10° NW 22:31:17 84° NE 22:54:25 10° ESE visible
01 Aug - 00:37:24 10° W 01:00:19 55° SSW 01:18:56 10° SE visible
01 Aug - 03:10:46 10° WSW 03:30:13 39° S 03:42:29 10° ESE visible
01 Aug - 05:42:21 10° SW 05:57:14 49° SSE 06:05:17 10° E visible
01 Aug - 08:09:33 10° WSW 08:19:21 53° NW 08:24:58 10° NE visible
01 Aug - 20:10:40 10° NNW 20:26:31 46° NE 20:48:04 10° ESE daylight
01 Aug - 22:31:56 10° WNW 22:53:00 83° SSW 23:15:57 10° SE visible
02 Aug - 01:00:12 10° W 01:22:46 49° SSW 01:40:25 10° SE visible
02 Aug - 03:33:48 10° WSW 03:52:42 39° S 04:04:16 10° ESE visible
02 Aug - 06:04:09 10° SW 06:18:53 61° SSE 06:26:37 10° ENE visible
02 Aug - 08:31:40 10° WSW 08:39:56 33° NW 08:45:08 10° NNE visible
02 Aug - 18:15:58 10° NNE 18:23:53 16° NE 18:33:45 10° E daylight
02 Aug - 20:30:56 10° NNW 20:47:38 58° NE 21:10:31 10° ESE visible
02 Aug - 22:53:32 10° WNW 23:14:56 72° SSW 23:37:25 10° SE visible
03 Aug - 01:23:13 10° W 01:45:23 45° SSW 02:02:02 10° ESE visible
03 Aug - 03:56:30 10° WSW 04:15:05 42° S 04:26:02 10° ESE visible
03 Aug - 06:25:52 10° SW 06:40:17 79° SSE 06:47:43 10° ENE visible
03 Aug - 08:54:25 10° W 09:00:23 20° NW 09:04:41 10° N daylight
03 Aug - 18:34:09 10° N 18:44:53 24° NE 18:59:37 10° E daylight
03 Aug - 20:51:31 10° NW 21:08:52 72° NE 21:32:35 10° ESE visible
03 Aug - 23:15:29 10° WNW 23:37:07 62° SSW 23:58:56 10° SE visible
04 Aug - 01:46:22 10° WSW 02:08:08 42° S 02:23:48 10° ESE visible
04 Aug - 04:18:53 10° SW 04:37:19 47° SSE 04:47:43 10° E visible
04 Aug - 06:47:38 10° WSW 07:01:24 78° NW 07:08:32 10° NE visible
04 Aug - 09:19:26 10° WNW 09:20:50 11° NW 09:22:08 10° NW daylight
04 Aug - 18:53:27 10° NNW 19:05:45 33° NE 19:23:45 10° ESE daylight
04 Aug - 21:12:25 10° NW 21:30:18 85° NE 21:54:24 10° ESE visible
04 Aug - 23:37:45 10° W 23:59:32 55° SSW 00:20:31 10° SE visible
05 Aug - 02:09:26 10° WSW 02:30:54 42° S 02:45:40 10° ESE visible
05 Aug - 04:40:59 10° SW 04:59:18 56° SSE 05:09:16 10° E visible
05 Aug - 07:09:35 10° WSW 07:22:14 55° NW 07:29:04 10° NE visible
05 Aug - 19:13:16 10° NNW 19:26:34 44° NE 19:46:55 10° ESE daylight
05 Aug - 21:33:35 10° WNW 21:52:00 82° SSW 22:16:06 10° SE visible
06 Aug - 00:00:18 10° W 00:22:11 50° SSW 00:42:14 10° ESE visible
06 Aug - 02:32:19 10° WSW 02:53:36 43° S 03:07:37 10° ESE visible
06 Aug - 05:02:55 10° SW 05:21:04 68° SSE 05:30:35 10° ENE visible
06 Aug - 07:31:52 10° WSW 07:42:49 37° NW 07:49:14 10° NNE visible
06 Aug - 17:20:03 10° NNE 17:25:14 13° NE 17:31:30 10° ENE daylight
06 Aug - 19:33:29 10° NNW 19:47:29 57° NE 20:09:29 10° ESE daylight
06 Aug - 21:55:04 10° WNW 22:13:57 70° SSW 22:37:46 10° SE visible
07 Aug - 00:23:04 10° W 00:45:01 46° S 01:04:07 10° ESE visible
07 Aug - 02:54:56 10° WSW 03:16:11 47° S 03:29:31 10° E visible
07 Aug - 05:24:47 10° WSW 05:42:32 84° SSE 05:51:40 10° ENE visible
07 Aug - 07:54:45 10° W 08:03:15 24° NW 08:08:53 10° N visible
07 Aug - 17:37:33 10° N 17:46:01 21° NE 17:57:56 10° E daylight
07 Aug - 19:54:01 10° NW 20:08:35 72° NE 20:31:40 10° ESE daylight
07 Aug - 22:16:52 10° WNW 22:36:11 61° SSW 22:59:28 10° SE visible
08 Aug - 00:45:55 10° WSW 01:07:57 44° S 01:26:08 10° ESE visible
08 Aug - 03:17:17 10° SW 03:38:33 52° SSE 03:51:17 10° E visible
08 Aug - 05:46:41 10° WSW 06:03:42 76° NW 06:12:29 10° NE visible
08 Aug - 08:18:56 10° W 08:23:40 14° NW 08:27:25 10° NNW visible
08 Aug - 17:56:40 10° N 18:06:41 31° NE 18:22:11 10° ESE daylight
08 Aug - 20:14:51 10° NW 20:29:55 87° NE 20:53:37 10° ESE visible
08 Aug - 22:38:57 10° W 22:58:41 54° SSW 23:21:17 10° ESE visible
